Time,TemperatureF,DewpointF,PressureIn,WindDirection,WindDirectionDegrees,WindSpeedMPH,WindSpeedGustMPH,Humidity,HourlyPrecipIn,Conditions,Clouds,dailyrainin,SolarRadiationWatts/m^2,SoftwareType,DateUTC
2013-12-09 00:01:00,77.5,70.5,30.14,NE,50,2.0,8.0,79,0.00,,FEW021,0.00,0.00,VWS V14.01,2013-12-09 05:01:00,
2013-12-09 00:06:00,77.5,70.5,30.14,ENE,68,3.0,11.0,79,0.00,,FEW021,0.00,0.00,VWS V14.01,2013-12-09 05:06:00,
2013-12-09 00:11:00,77.6,70.6,30.14,South,171,2.0,8.0,79,0.00,,FEW021,0.00,0.00,VWS V14.01,2013-12-09 05:11:00,
2013-12-09 00:16:00,77.6,70.6,30.14,ENE,69,0.0,13.0,79,0.00,,FEW021,0.00,0.00,VWS V14.01,2013-12-09 05:16:00,
2013-12-09 00:21:00,77.6,70.6,30.13,ENE,65,2.0,9.0,79,0.00,,FEW021,0.00,0.00,VWS V14.01,2013-12-09 05:21:00,
2013-12-09 00:26:00,77.6,70.6,30.14,North,360,2.0,11.0,79,0.00,,FEW021,0.00,0.00,VWS V14.01,2013-12-09 05:26:00,
2013-12-09 00:31:00,77.6,70.6,30.14,SE,131,1.0,14.0,79,0.00,,FEW021,0.00,0.00,VWS V14.01,2013-12-09 05:31:00,
2013-12-09 00:36:00,77.5,70.5,30.13,SSE,158,3.0,8.0,79,0.00,,FEW021,0.00,0.00,VWS V14.01,2013-12-09 05:36:00,
2013-12-09 00:41:00,77.5,70.5,30.14,North,360,1.0,12.0,79,0.00,,FEW021,0.00,0.00,VWS V14.01,2013-12-09 05:41:00,
2013-12-09 00:46:00,77.4,70.4,30.14,ENE,67,4.0,10.0,79,0.00,,FEW021,0.00,0.00,VWS V14.01,2013-12-09 05:46:00,
2013-12-09 00:51:00,77.4,70.4,30.14,SSE,150,2.0,12.0,79,0.00,,FEW021,0.00,0.00,VWS V14.01,2013-12-09 05:51:00,
2013-12-09 00:56:00,77.4,70.4,30.14,SE,134,2.0,9.0,79,0.00,,FEW021,0.00,0.00,VWS V14.01,2013-12-09 05:56:00,
2013-12-09 01:01:00,77.4,70.4,30.14,SSE,150,4.0,9.0,79,0.00,,FEW021,0.00,0.00,VWS V14.01,2013-12-09 06:01:00,
2013-12-09 01:06:00,77.4,70.4,30.13,ENE,64,3.0,9.0,79,0.00,,FEW021,0.00,0.00,VWS V14.01,2013-12-09 06:06:00,
2013-12-09 01:11:00,77.4,70.4,30.13,North,360,1.0,8.0,79,0.00,,FEW021,0.00,0.00,VWS V14.01,2013-12-09 06:11:00,
2013-12-09 01:16:00,77.3,70.3,30.13,East,86,6.0,8.0,79,0.00,,FEW021,0.00,0.00,VWS V14.01,2013-12-09 06:16:00,
2013-12-09 01:21:00,77.2,70.6,30.13,SSE,159,2.0,9.0,80,0.00,,FEW021,0.00,0.00,VWS V14.01,2013-12-09 06:21:00,
2013-12-09 01:26:00,77.1,70.5,30.12,SE,140,3.0,10.0,80,0.00,,FEW021,0.00,0.00,VWS V14.01,2013-12-09 06:26:00,
2013-12-09 01:31:00,77.0,70.4,30.12,ENE,73,3.0,11.0,80,0.00,,FEW021,0.00,0.00,VWS V14.01,2013-12-09 06:31:00,
2013-12-09 01:36:00,76.8,70.2,30.12,SE,135,4.0,11.0,80,0.00,,FEW021,0.00,0.00,VWS V14.01,2013-12-09 06:36:00,
2013-12-09 01:41:00,76.8,70.2,30.12,SSE,154,5.0,13.0,80,0.00,,FEW021,0.00,0.00,VWS V14.01,2013-12-09 06:41:00,
2013-12-09 01:46:00,76.7,70.4,30.12,SSE,159,4.0,4.0,81,0.00,,FEW021,0.00,0.00,VWS V14.01,2013-12-09 06:46:00,
2013-12-09 01:51:00,76.6,70.3,30.12,East,92,6.0,9.0,81,0.00,,FEW021,0.00,0.00,VWS V14.01,2013-12-09 06:51:00,
2013-12-09 01:56:00,76.6,70.3,30.12,SE,132,3.0,11.0,81,0.00,,FEW021,0.00,0.00,VWS V14.01,2013-12-09 06:56:00,
2013-12-09 02:01:00,76.6,70.3,30.12,SE,132,4.0,9.0,81,0.00,,FEW021,0.00,0.00,VWS V14.01,2013-12-09 07:01:00,
2013-12-09 02:06:00,76.6,70.3,30.12,ESE,107,4.0,9.0,81,0.00,,FEW021,0.00,0.00,VWS V14.01,2013-12-09 07:06:00,
2013-12-09 02:11:00,76.6,70.3,30.12,SE,134,3.0,9.0,81,0.00,,FEW021,0.00,0.00,VWS V14.01,2013-12-09 07:11:00,
2013-12-09 02:16:00,76.5,70.2,30.12,SSE,158,0.0,7.0,81,0.00,,FEW021,0.00,0.00,VWS V14.01,2013-12-09 07:16:00,
2013-12-09 02:21:00,76.4,70.5,30.13,South,177,3.0,6.0,82,0.00,,FEW021,0.00,0.00,VWS V14.01,2013-12-09 07:21:00,
2013-12-09 02:26:00,76.3,70.4,30.13,SE,129,2.0,9.0,82,0.00,,FEW021,0.00,0.00,VWS V14.01,2013-12-09 07:26:00,
2013-12-09 02:31:00,76.3,70.4,30.13,SSE,153,1.0,8.0,82,0.00,,FEW021,0.00,0.00,VWS V14.01,2013-12-09 07:31:00,
2013-12-09 02:36:00,76.3,70.4,30.13,SSE,157,1.0,4.0,82,0.00,,FEW021,0.00,0.00,VWS V14.01,2013-12-09 07:36:00,
2013-12-09 02:41:00,76.3,70.4,30.13,SE,133,4.0,7.0,82,0.00,,FEW021,0.00,0.00,VWS V14.01,2013-12-09 07:41:00,
2013-12-09 02:46:00,76.3,70.4,30.13,SSW,197,5.0,5.0,82,0.00,,FEW021,0.00,0.00,VWS V14.01,2013-12-09 07:46:00,
2013-12-09 02:51:00,76.3,70.4,30.13,SE,130,2.0,7.0,82,0.00,,FEW021,0.00,0.00,VWS V14.01,2013-12-09 07:51:00,
2013-12-09 02:56:00,76.3,70.4,30.13,South,175,0.0,8.0,82,0.00,,FEW021,0.00,0.00,VWS V14.01,2013-12-09 07:56:00,
2013-12-09 03:01:00,76.2,70.3,30.13,ENE,71,4.0,5.0,82,0.00,,FEW021,0.00,0.00,VWS V14.01,2013-12-09 08:01:00,
2013-12-09 03:06:00,76.2,70.3,30.13,East,91,2.0,5.0,82,0.00,,FEW021,0.00,0.00,VWS V14.01,2013-12-09 08:06:00,
2013-12-09 03:11:00,76.2,70.3,30.13,SSE,151,1.0,6.0,82,0.00,,FEW021,0.00,0.00,VWS V14.01,2013-12-09 08:11:00,
2013-12-09 03:16:00,76.2,70.3,30.13,SE,140,3.0,5.0,82,0.00,,FEW021,0.00,0.00,VWS V14.01,2013-12-09 08:16:00,
2013-12-09 03:21:00,76.2,70.3,30.13,SSE,164,2.0,7.0,82,0.00,,FEW021,0.00,0.00,VWS V14.01,2013-12-09 08:21:00,
2013-12-09 03:26:00,76.1,69.8,30.13,East,88,2.0,7.0,81,0.00,,FEW021,0.00,0.00,VWS V14.01,2013-12-09 08:26:00,
2013-12-09 03:31:00,76.0,69.8,30.13,SSE,152,2.0,6.0,81,0.00,,FEW021,0.00,0.00,VWS V14.01,2013-12-09 08:31:00,
2013-12-09 03:36:00,75.9,69.7,30.13,SE,133,0.0,3.0,81,0.00,,FEW021,0.00,0.00,VWS V14.01,2013-12-09 08:36:00,
2013-12-09 03:41:00,75.6,69.7,30.13,SSE,161,0.0,4.0,82,0.00,,FEW021,0.00,0.00,VWS V14.01,2013-12-09 08:41:00,
2013-12-09 03:46:00,75.4,69.9,30.13,SE,133,3.0,4.0,83,0.00,,FEW021,0.00,0.00,VWS V14.01,2013-12-09 08:46:00,
2013-12-09 03:51:00,75.3,69.8,30.13,North,360,1.0,3.0,83,0.00,,FEW021,0.00,0.00,VWS V14.01,2013-12-09 08:51:00,
2013-12-09 03:56:00,75.2,69.7,30.13,SSE,165,3.0,3.0,83,0.00,,FEW021,0.00,0.00,VWS V14.01,2013-12-09 08:56:00,
2013-12-09 04:01:00,75.2,69.7,30.13,SE,133,3.0,4.0,83,0.00,,FEW021,0.00,0.00,VWS V14.01,2013-12-09 09:01:00,
2013-12-09 04:06:00,75.3,70.1,30.13,SE,136,1.0,3.0,84,0.00,,FEW021,0.00,0.00,VWS V14.01,2013-12-09 09:06:00,
2013-12-09 04:11:00,75.3,70.1,30.13,SE,140,3.0,5.0,84,0.00,,FEW021,0.00,0.00,VWS V14.01,2013-12-09 09:11:00,
2013-12-09 04:16:00,75.3,70.1,30.13,ESE,116,1.0,3.0,84,0.00,,FEW021,0.00,0.00,VWS V14.01,2013-12-09 09:16:00,
2013-12-09 04:21:00,75.3,69.8,30.13,SE,132,3.0,9.0,83,0.00,,FEW021,0.00,0.00,VWS V14.01,2013-12-09 09:21:00,
2013-12-09 04:26:00,75.3,69.8,30.13,SE,131,1.0,4.0,83,0.00,,FEW021,0.00,0.00,VWS V14.01,2013-12-09 09:26:00,
2013-12-09 04:31:00,75.3,69.8,30.13,SSE,155,1.0,4.0,83,0.00,,FEW021,0.00,0.00,VWS V14.01,2013-12-09 09:31:00,
2013-12-09 04:36:00,75.2,69.7,30.13,SSE,157,1.0,3.0,83,0.00,,FEW021,0.00,0.00,VWS V14.01,2013-12-09 09:36:00,
2013-12-09 04:41:00,75.2,69.3,30.13,SSE,155,2.0,10.0,82,0.00,,FEW021,0.00,0.00,VWS V14.01,2013-12-09 09:41:00,
2013-12-09 04:46:00,75.2,69.3,30.13,SSE,148,1.0,8.0,82,0.00,,FEW021,0.00,0.00,VWS V14.01,2013-12-09 09:46:00,
2013-12-09 04:51:00,75.1,69.2,30.13,ENE,65,0.0,5.0,82,0.00,,FEW021,0.00,0.00,VWS V14.01,2013-12-09 09:51:00,
2013-12-09 04:56:00,75.1,69.2,30.13,SE,130,1.0,4.0,82,0.00,,FEW021,0.00,0.00,VWS V14.01,2013-12-09 09:56:00,
2013-12-09 05:01:00,75.1,69.2,30.13,SE,140,0.0,3.0,82,0.00,,FEW021,0.00,0.00,VWS V14.01,2013-12-09 10:01:00,
2013-12-09 05:06:00,75.1,69.6,30.14,SE,133,2.0,2.0,83,0.00,,FEW021,0.00,0.00,VWS V14.01,2013-12-09 10:06:00,
2013-12-09 05:11:00,75.2,69.7,30.14,SE,134,1.0,3.0,83,0.00,,FEW021,0.00,0.00,VWS V14.01,2013-12-09 10:11:00,
2013-12-09 05:16:00,75.4,69.9,30.14,SE,133,3.0,8.0,83,0.00,,FEW021,0.00,0.00,VWS V14.01,2013-12-09 10:16:00,
2013-12-09 05:21:00,75.5,69.6,30.14,East,88,3.0,4.0,82,0.00,,FEW021,0.00,0.00,VWS V14.01,2013-12-09 10:21:00,
2013-12-09 05:26:00,75.7,69.8,30.14,North,360,2.0,5.0,82,0.00,,FEW021,0.00,0.00,VWS V14.01,2013-12-09 10:26:00,
2013-12-09 05:31:00,75.8,69.6,30.14,ESE,120,2.0,4.0,81,0.00,,FEW021,0.00,0.00,VWS V14.01,2013-12-09 10:31:00,
2013-12-09 05:36:00,75.9,69.7,30.14,ESE,110,4.0,7.0,81,0.00,,FEW021,0.00,0.00,VWS V14.01,2013-12-09 10:36:00,
2013-12-09 05:41:00,76.0,69.8,30.14,SSE,158,3.0,7.0,81,0.00,,FEW021,0.00,0.00,VWS V14.01,2013-12-09 10:41:00,
2013-12-09 05:46:00,76.1,69.8,30.14,NE,39,2.0,8.0,81,0.00,,FEW021,0.00,0.00,VWS V14.01,2013-12-09 10:46:00,
2013-12-09 05:51:00,76.2,69.9,30.14,SE,132,1.0,4.0,81,0.00,,FEW021,0.00,0.00,VWS V14.01,2013-12-09 10:51:00,
2013-12-09 05:56:00,76.2,69.9,30.15,SSE,153,4.0,4.0,81,0.00,,FEW021,0.00,0.00,VWS V14.01,2013-12-09 10:56:00,
2013-12-09 06:00:00,76.2,69.9,30.14,SSE,155,1.0,5.0,81,0.00,,FEW021,0.00,0.00,VWS V14.01,2013-12-09 11:00:00,
2013-12-09 06:05:00,76.2,69.9,30.15,ENE,70,3.0,5.0,81,0.00,,FEW021,0.00,0.00,VWS V14.01,2013-12-09 11:05:00,
2013-12-09 06:10:00,76.3,70.1,30.15,NE,44,2.0,5.0,81,0.00,,FEW021,0.00,0.00,VWS V14.01,2013-12-09 11:10:00,
2013-12-09 06:15:00,76.4,70.1,30.15,ENE,64,1.0,4.0,81,0.00,,FEW021,0.00,0.00,VWS V14.01,2013-12-09 11:15:00,
2013-12-09 06:20:00,76.4,70.5,30.15,ESE,111,3.0,4.0,82,0.00,,FEW021,0.00,0.00,VWS V14.01,2013-12-09 11:20:00,
2013-12-09 06:25:00,76.3,70.4,30.15,NE,46,3.0,7.0,82,0.00,,FEW021,0.00,0.00,VWS V14.01,2013-12-09 11:25:00,
2013-12-09 06:30:00,76.4,70.5,30.15,SE,133,2.0,6.0,82,0.00,,FEW021,0.00,0.00,VWS V14.01,2013-12-09 11:30:00,
2013-12-09 06:35:00,76.4,70.5,30.15,SSE,161,2.0,6.0,82,0.00,,FEW021,0.00,0.00,VWS V14.01,2013-12-09 11:35:00,
2013-12-09 06:40:00,76.3,70.4,30.15,SE,131,2.0,4.0,82,0.00,,FEW021,0.00,0.00,VWS V14.01,2013-12-09 11:40:00,
2013-12-09 06:45:00,76.2,70.3,30.16,SSE,150,2.0,6.0,82,0.00,,FEW021,0.00,0.00,VWS V14.01,2013-12-09 11:45:00,
2013-12-09 06:50:00,76.1,70.2,30.16,SSE,152,3.0,8.0,82,0.00,,FEW021,0.00,0.00,VWS V14.01,2013-12-09 11:50:00,
2013-12-09 06:55:00,76.0,69.4,30.16,SSE,159,7.0,9.0,80,0.00,,FEW021,0.00,0.00,VWS V14.01,2013-12-09 11:55:00,
2013-12-09 07:00:00,76.0,69.4,30.16,SE,133,4.0,7.0,80,0.00,,FEW021,0.00,5.00,VWS V14.01,2013-12-09 12:00:00,
2013-12-09 07:05:00,76.0,69.4,30.16,SSE,150,3.0,4.0,80,0.00,,FEW021,0.00,9.00,VWS V14.01,2013-12-09 12:05:00,
2013-12-09 07:10:00,75.9,69.3,30.16,SSE,150,1.0,7.0,80,0.00,,FEW021,0.00,21.00,VWS V14.01,2013-12-09 12:10:00,
2013-12-09 07:15:00,75.9,68.9,30.16,SE,133,5.0,9.0,79,0.00,,FEW021,0.00,21.00,VWS V14.01,2013-12-09 12:15:00,
2013-12-09 07:19:00,75.9,68.9,30.16,SE,141,1.0,7.0,79,0.00,,FEW021,0.00,23.00,VWS V14.01,2013-12-09 12:19:00,
2013-12-09 07:24:00,75.9,68.6,30.16,North,360,4.0,6.0,78,0.00,,FEW021,0.00,25.00,VWS V14.01,2013-12-09 12:24:00,
2013-12-09 07:29:00,75.9,68.6,30.16,SE,133,2.0,6.0,78,0.00,,FEW021,0.00,26.00,VWS V14.01,2013-12-09 12:29:00,
2013-12-09 07:34:00,76.0,68.7,30.16,SE,128,1.0,5.0,78,0.00,,FEW021,0.00,30.00,VWS V14.01,2013-12-09 12:34:00,
2013-12-09 07:39:00,76.0,68.7,30.17,North,360,1.0,5.0,78,0.00,,FEW021,0.00,40.00,VWS V14.01,2013-12-09 12:39:00,
2013-12-09 07:44:00,76.1,68.8,30.17,SSE,155,1.0,4.0,78,0.00,,FEW021,0.00,56.00,VWS V14.01,2013-12-09 12:44:00,
2013-12-09 07:49:00,76.4,69.0,30.17,SSE,152,2.0,6.0,78,0.00,,FEW021,0.00,70.00,VWS V14.01,2013-12-09 12:49:00,
2013-12-09 07:54:00,76.7,68.9,30.17,SSE,152,2.0,6.0,77,0.00,,FEW021,0.00,81.00,VWS V14.01,2013-12-09 12:54:00,
2013-12-09 07:59:00,77.0,69.2,30.17,SE,140,4.0,5.0,77,0.00,,FEW021,0.00,100.00,VWS V14.01,2013-12-09 12:59:00,
2013-12-09 08:04:00,77.3,69.2,30.17,SE,146,1.0,5.0,76,0.00,,FEW021,0.00,120.00,VWS V14.01,2013-12-09 13:04:00,
2013-12-09 08:09:00,77.6,69.4,30.17,SSE,155,1.0,8.0,76,0.00,,FEW021,0.00,137.00,VWS V14.01,2013-12-09 13:09:00,
2013-12-09 08:14:00,77.9,68.9,30.18,East,90,2.0,9.0,74,0.00,,FEW021,0.00,156.00,VWS V14.01,2013-12-09 13:14:00,
2013-12-09 08:19:00,78.2,69.2,30.18,ESE,119,3.0,7.0,74,0.00,,FEW021,0.00,174.00,VWS V14.01,2013-12-09 13:19:00,
2013-12-09 08:24:00,78.4,69.0,30.18,SE,135,5.0,9.0,73,0.00,,FEW021,0.00,190.00,VWS V14.01,2013-12-09 13:24:00,
2013-12-09 08:29:00,78.5,68.7,30.17,SE,132,2.0,8.0,72,0.00,,FEW021,0.00,206.00,VWS V14.01,2013-12-09 13:29:00,
2013-12-09 08:34:00,78.8,69.0,30.18,ESE,111,1.0,8.0,72,0.00,,FEW021,0.00,167.00,VWS V14.01,2013-12-09 13:34:00,
2013-12-09 08:39:00,78.9,69.1,30.18,SSE,157,3.0,9.0,72,0.00,,FEW021,0.00,243.00,VWS V14.01,2013-12-09 13:39:00,
2013-12-09 08:44:00,79.3,69.1,30.18,SE,132,7.0,10.0,71,0.00,,FEW021,0.00,264.00,VWS V14.01,2013-12-09 13:44:00,
2013-12-09 08:49:00,79.4,68.8,30.18,South,173,4.0,11.0,70,0.00,,FEW021,0.00,294.00,VWS V14.01,2013-12-09 13:49:00,
2013-12-09 08:54:00,79.5,68.9,30.18,East,83,5.0,9.0,70,0.00,,FEW021,0.00,271.00,VWS V14.01,2013-12-09 13:54:00,
2013-12-09 08:59:00,79.8,68.7,30.18,SSW,205,7.0,8.0,69,0.00,,FEW021,0.00,320.00,VWS V14.01,2013-12-09 13:59:00,
2013-12-09 09:04:00,80.0,68.5,30.18,SE,133,3.0,11.0,68,0.00,,FEW021,0.00,329.00,VWS V14.01,2013-12-09 14:04:00,
2013-12-09 09:09:00,80.2,67.8,30.18,SE,133,4.0,12.0,66,0.00,,FEW021,0.00,343.00,VWS V14.01,2013-12-09 14:09:00,
2013-12-09 09:14:00,80.2,67.4,30.18,North,360,6.0,12.0,65,0.00,,FEW021,0.00,359.00,VWS V14.01,2013-12-09 14:14:00,
2013-12-09 09:19:00,80.4,67.1,30.18,SSE,164,2.0,11.0,64,0.00,,FEW021,0.00,373.00,VWS V14.01,2013-12-09 14:19:00,
2013-12-09 09:24:00,80.6,66.8,30.18,SE,131,6.0,14.0,63,0.00,,FEW021,0.00,388.00,VWS V14.01,2013-12-09 14:24:00,
2013-12-09 09:29:00,80.7,66.9,30.19,North,360,4.0,11.0,63,0.00,,FEW021,0.00,403.00,VWS V14.01,2013-12-09 14:29:00,
2013-12-09 09:34:00,81.0,66.8,30.19,SE,133,7.0,11.0,62,0.00,,FEW021,0.00,411.00,VWS V14.01,2013-12-09 14:34:00,
2013-12-09 09:39:00,80.9,66.2,30.18,South,170,6.0,16.0,61,0.00,,FEW021,0.00,427.00,VWS V14.01,2013-12-09 14:39:00,
2013-12-09 09:44:00,81.0,66.8,30.19,ESE,121,3.0,14.0,62,0.00,,FEW021,0.00,445.00,VWS V14.01,2013-12-09 14:44:00,
2013-12-09 09:49:00,81.1,66.9,30.19,SSE,154,6.0,16.0,62,0.00,,FEW021,0.00,459.00,VWS V14.01,2013-12-09 14:49:00,
2013-12-09 09:54:00,81.1,66.9,30.19,East,88,5.0,13.0,62,0.00,,FEW021,0.00,476.00,VWS V14.01,2013-12-09 14:54:00,
2013-12-09 09:59:00,81.2,66.9,30.19,SE,142,9.0,14.0,62,0.00,,FEW021,0.00,489.00,VWS V14.01,2013-12-09 14:59:00,
2013-12-09 10:04:00,81.3,67.1,30.19,SSW,193,7.0,14.0,62,0.00,,FEW021,0.00,496.00,VWS V14.01,2013-12-09 15:04:00,
2013-12-09 10:09:00,81.6,67.8,30.19,East,90,5.0,10.0,63,0.00,,FEW021,0.00,515.00,VWS V14.01,2013-12-09 15:09:00,
2013-12-09 10:14:00,81.5,68.2,30.19,SE,134,6.0,12.0,64,0.00,,FEW021,0.00,531.00,VWS V14.01,2013-12-09 15:14:00,
2013-12-09 10:19:00,81.5,68.2,30.19,SSE,150,6.0,13.0,64,0.00,,FEW021,0.00,541.00,VWS V14.01,2013-12-09 15:19:00,
2013-12-09 10:24:00,81.6,68.7,30.18,SSE,153,6.0,11.0,65,0.00,,FEW021,0.00,554.00,VWS V14.01,2013-12-09 15:24:00,
2013-12-09 10:29:00,81.9,69.0,30.18,SSE,162,4.0,16.0,65,0.00,,FEW021,0.00,594.00,VWS V14.01,2013-12-09 15:29:00,
2013-12-09 10:34:00,82.0,69.1,30.18,SSE,159,6.0,12.0,65,0.00,,FEW021,0.00,585.00,VWS V14.01,2013-12-09 15:34:00,
2013-12-09 10:39:00,82.1,68.3,30.18,SE,129,5.0,11.0,63,0.00,,FEW021,0.00,580.00,VWS V14.01,2013-12-09 15:39:00,
2013-12-09 10:44:00,81.9,68.5,30.18,ENE,71,5.0,13.0,64,0.00,,FEW021,0.00,628.00,VWS V14.01,2013-12-09 15:44:00,
2013-12-09 10:49:00,81.4,68.5,30.18,SE,134,4.0,14.0,65,0.00,,FEW021,0.00,534.00,VWS V14.01,2013-12-09 15:49:00,
2013-12-09 10:54:00,82.0,70.0,30.18,SE,132,3.0,8.0,67,0.00,,FEW021,0.00,679.00,VWS V14.01,2013-12-09 15:54:00,
2013-12-09 10:59:00,82.0,69.1,30.18,SSE,156,3.0,11.0,65,0.00,,FEW021,0.00,693.00,VWS V14.01,2013-12-09 15:59:00,
2013-12-09 11:04:00,81.8,67.5,30.18,ESE,119,5.0,11.0,62,0.00,,FEW021,0.00,645.00,VWS V14.01,2013-12-09 16:04:00,
2013-12-09 11:09:00,81.4,68.1,30.18,East,96,5.0,11.0,64,0.00,,FEW021,0.00,707.00,VWS V14.01,2013-12-09 16:09:00,
2013-12-09 11:14:00,81.5,68.6,30.17,SE,133,1.0,10.0,65,0.00,,FEW021,0.00,698.00,VWS V14.01,2013-12-09 16:14:00,
2013-12-09 11:19:00,82.0,67.2,30.17,SE,140,5.0,11.0,61,0.00,,FEW021,0.00,179.00,VWS V14.01,2013-12-09 16:19:00,
2013-12-09 11:24:00,81.7,66.9,30.17,SSE,165,4.0,10.0,61,0.00,,FEW021,0.00,701.00,VWS V14.01,2013-12-09 16:24:00,
2013-12-09 11:29:00,81.9,66.7,30.17,SSE,150,7.0,11.0,60,0.00,,FEW021,0.00,687.00,VWS V14.01,2013-12-09 16:29:00,
2013-12-09 11:34:00,82.3,67.0,30.17,ESE,110,7.0,14.0,60,0.00,,FEW021,0.00,700.00,VWS V14.01,2013-12-09 16:34:00,
2013-12-09 11:39:00,82.3,68.0,30.17,ESE,117,2.0,10.0,62,0.00,,FEW021,0.00,712.00,VWS V14.01,2013-12-09 16:39:00,
2013-12-09 11:44:00,82.3,67.5,30.17,SE,132,5.0,11.0,61,0.00,,FEW021,0.00,712.00,VWS V14.01,2013-12-09 16:44:00,
2013-12-09 11:49:00,81.7,66.9,30.17,ENE,71,4.0,10.0,61,0.00,,FEW021,0.00,162.00,VWS V14.01,2013-12-09 16:49:00,
2013-12-09 11:54:00,81.8,67.5,30.16,SE,141,1.0,12.0,62,0.00,,FEW021,0.00,744.00,VWS V14.01,2013-12-09 16:54:00,
2013-12-09 11:59:00,82.5,67.2,30.16,SE,134,3.0,10.0,60,0.00,,FEW021,0.00,722.00,VWS V14.01,2013-12-09 16:59:00,
2013-12-09 12:04:00,83.0,66.2,30.15,NNE,32,2.0,10.0,57,0.00,,FEW021,0.00,738.00,VWS V14.01,2013-12-09 17:04:00,
2013-12-09 12:09:00,82.4,66.7,30.15,East,101,5.0,10.0,59,0.00,,FEW021,0.00,130.00,VWS V14.01,2013-12-09 17:09:00,
2013-12-09 12:14:00,82.2,67.9,30.15,ENE,74,2.0,14.0,62,0.00,,FEW021,0.00,749.00,VWS V14.01,2013-12-09 17:14:00,
2013-12-09 12:19:00,82.8,68.9,30.14,SSE,159,3.0,9.0,63,0.00,,FEW021,0.00,766.00,VWS V14.01,2013-12-09 17:19:00,
2013-12-09 12:24:00,82.8,68.9,30.14,ESE,119,7.0,14.0,63,0.00,,FEW021,0.00,791.00,VWS V14.01,2013-12-09 17:24:00,
2013-12-09 12:29:00,82.7,68.4,30.14,East,95,3.0,11.0,62,0.00,,FEW021,0.00,788.00,VWS V14.01,2013-12-09 17:29:00,
2013-12-09 12:34:00,82.3,68.5,30.14,ENE,68,4.0,10.0,63,0.00,,FEW021,0.00,842.00,VWS V14.01,2013-12-09 17:34:00,
2013-12-09 12:39:00,81.9,68.1,30.13,SSE,154,6.0,11.0,63,0.00,,FEW021,0.00,172.00,VWS V14.01,2013-12-09 17:39:00,
2013-12-09 12:44:00,82.4,69.0,30.13,ESE,111,3.0,14.0,64,0.00,,FEW021,0.00,819.00,VWS V14.01,2013-12-09 17:44:00,
2013-12-09 12:49:00,82.3,68.9,30.13,SSE,150,5.0,10.0,64,0.00,,FEW021,0.00,169.00,VWS V14.01,2013-12-09 17:49:00,
2013-12-09 12:54:00,81.4,68.1,30.13,SSE,158,6.0,9.0,64,0.00,,FEW021,0.00,207.00,VWS V14.01,2013-12-09 17:54:00,
2013-12-09 12:59:00,81.1,70.0,30.12,ENE,63,3.0,9.0,69,0.00,,FEW021,0.00,856.00,VWS V14.01,2013-12-09 17:59:00,
2013-12-09 13:04:00,81.3,69.7,30.12,North,360,6.0,10.0,68,0.00,,FEW021,0.00,788.00,VWS V14.01,2013-12-09 18:04:00,
2013-12-09 13:09:00,82.1,70.1,30.12,North,360,1.0,7.0,67,0.00,,FEW021,0.00,763.00,VWS V14.01,2013-12-09 18:09:00,
2013-12-09 13:14:00,82.4,69.9,30.11,East,92,3.0,10.0,66,0.00,,FEW021,0.00,728.00,VWS V14.01,2013-12-09 18:14:00,
2013-12-09 13:19:00,82.3,69.4,30.11,SE,134,6.0,8.0,65,0.00,,FEW021,0.00,251.00,VWS V14.01,2013-12-09 18:19:00,
2013-12-09 13:24:00,81.9,69.0,30.11,SE,132,3.0,12.0,65,0.00,,FEW021,0.00,308.00,VWS V14.01,2013-12-09 18:24:00,
2013-12-09 13:29:00,82.0,69.1,30.11,South,175,2.0,11.0,65,0.00,,FEW021,0.00,696.00,VWS V14.01,2013-12-09 18:29:00,
2013-12-09 13:34:00,82.0,69.1,30.11,ESE,118,3.0,10.0,65,0.00,,FEW021,0.00,244.00,VWS V14.01,2013-12-09 18:34:00,
2013-12-09 13:39:00,82.1,70.5,30.11,NE,51,3.0,9.0,68,0.00,,FEW021,0.00,659.00,VWS V14.01,2013-12-09 18:39:00,
2013-12-09 13:44:00,82.5,69.1,30.11,South,173,6.0,8.0,64,0.00,,FEW021,0.00,424.00,VWS V14.01,2013-12-09 18:44:00,
2013-12-09 13:49:00,81.9,68.1,30.11,ESE,121,10.0,11.0,63,0.00,,FEW021,0.00,232.00,VWS V14.01,2013-12-09 18:49:00,
2013-12-09 13:54:00,81.2,69.2,30.10,SE,132,5.0,10.0,67,0.00,,FEW021,0.00,227.00,VWS V14.01,2013-12-09 18:54:00,
2013-12-09 13:59:00,80.8,68.8,30.10,East,96,2.0,11.0,67,0.00,,FEW021,0.00,185.00,VWS V14.01,2013-12-09 18:59:00,
2013-12-09 14:04:00,80.8,69.3,30.10,East,88,2.0,13.0,68,0.00,,FEW021,0.00,178.00,VWS V14.01,2013-12-09 19:04:00,
2013-12-09 14:09:00,80.5,69.0,30.10,ESE,115,7.0,10.0,68,0.00,,FEW021,0.00,146.00,VWS V14.01,2013-12-09 19:09:00,
2013-12-09 14:14:00,80.2,69.1,30.10,SSW,192,6.0,8.0,69,0.00,,FEW021,0.00,172.00,VWS V14.01,2013-12-09 19:14:00,
2013-12-09 14:19:00,80.3,68.3,30.10,East,90,3.0,8.0,67,0.00,,FEW021,0.00,207.00,VWS V14.01,2013-12-09 19:19:00,
2013-12-09 14:24:00,80.6,69.1,30.10,East,92,1.0,10.0,68,0.00,,FEW021,0.00,649.00,VWS V14.01,2013-12-09 19:24:00,
2013-12-09 14:29:00,81.2,69.2,30.10,NE,36,3.0,10.0,67,0.00,,FEW021,0.00,626.00,VWS V14.01,2013-12-09 19:29:00,
2013-12-09 14:34:00,81.6,68.7,30.10,SE,136,4.0,16.0,65,0.00,,FEW021,0.00,573.00,VWS V14.01,2013-12-09 19:34:00,
2013-12-09 14:39:00,81.4,68.1,30.10,South,188,3.0,11.0,64,0.00,,FEW021,0.00,548.00,VWS V14.01,2013-12-09 19:39:00,
2013-12-09 14:44:00,81.4,67.6,30.10,South,170,5.0,10.0,63,0.00,,FEW021,0.00,522.00,VWS V14.01,2013-12-09 19:44:00,
2013-12-09 14:49:00,81.4,69.0,30.10,SE,133,1.0,8.0,66,0.00,,FEW021,0.00,510.00,VWS V14.01,2013-12-09 19:49:00,
2013-12-09 14:54:00,81.3,66.6,30.10,South,186,4.0,9.0,61,0.00,,FEW021,0.00,512.00,VWS V14.01,2013-12-09 19:54:00,
2013-12-09 14:59:00,81.4,67.6,30.10,South,175,6.0,7.0,63,0.00,,FEW021,0.00,120.00,VWS V14.01,2013-12-09 19:59:00,
2013-12-09 15:04:00,80.8,67.9,30.10,SSE,149,2.0,10.0,65,0.00,,FEW021,0.00,478.00,VWS V14.01,2013-12-09 20:04:00,
2013-12-09 15:09:00,80.9,68.0,30.10,SE,146,5.0,8.0,65,0.00,,FEW021,0.00,464.00,VWS V14.01,2013-12-09 20:09:00,
2013-12-09 15:14:00,81.3,68.9,30.10,SSE,159,2.0,6.0,66,0.00,,FEW021,0.00,443.00,VWS V14.01,2013-12-09 20:14:00,
2013-12-09 15:19:00,81.4,66.2,30.10,SE,140,1.0,9.0,60,0.00,,FEW021,0.00,424.00,VWS V14.01,2013-12-09 20:19:00,
2013-12-09 15:24:00,81.4,67.1,30.10,SE,127,0.0,8.0,62,0.00,,FEW021,0.00,401.00,VWS V14.01,2013-12-09 20:24:00,
2013-12-09 15:29:00,81.5,68.2,30.10,NNE,30,2.0,7.0,64,0.00,,FEW021,0.00,378.00,VWS V14.01,2013-12-09 20:29:00,
2013-12-09 15:34:00,81.3,68.0,30.10,SE,132,2.0,6.0,64,0.00,,FEW021,0.00,367.00,VWS V14.01,2013-12-09 20:34:00,
2013-12-09 15:39:00,80.9,68.0,30.10,East,89,1.0,9.0,65,0.00,,FEW021,0.00,355.00,VWS V14.01,2013-12-09 20:39:00,
2013-12-09 15:44:00,81.1,67.3,30.10,ENE,66,2.0,5.0,63,0.00,,FEW021,0.00,338.00,VWS V14.01,2013-12-09 20:44:00,
2013-12-09 15:49:00,81.0,68.1,30.10,ESE,116,3.0,5.0,65,0.00,,FEW021,0.00,320.00,VWS V14.01,2013-12-09 20:49:00,
2013-12-09 15:54:00,80.9,67.6,30.10,SE,130,0.0,7.0,64,0.00,,FEW021,0.00,304.00,VWS V14.01,2013-12-09 20:54:00,
2013-12-09 15:59:00,80.6,67.3,30.10,SE,136,3.0,8.0,64,0.00,,FEW021,0.00,288.00,VWS V14.01,2013-12-09 20:59:00,
2013-12-09 16:04:00,80.5,67.2,30.10,ENE,65,1.0,7.0,64,0.00,,FEW021,0.00,269.00,VWS V14.01,2013-12-09 21:04:00,
2013-12-09 16:09:00,80.6,67.8,30.10,NE,44,0.0,6.0,65,0.00,,FEW021,0.00,258.00,VWS V14.01,2013-12-09 21:09:00,
2013-12-09 16:14:00,80.4,68.4,30.10,NE,49,2.0,8.0,67,0.00,,FEW021,0.00,244.00,VWS V14.01,2013-12-09 21:14:00,
2013-12-09 16:19:00,80.3,68.3,30.10,ENE,70,3.0,5.0,67,0.00,,FEW021,0.00,227.00,VWS V14.01,2013-12-09 21:19:00,
2013-12-09 16:24:00,80.0,68.1,30.10,SSE,158,2.0,7.0,67,0.00,,FEW021,0.00,206.00,VWS V14.01,2013-12-09 21:24:00,
2013-12-09 16:29:00,79.6,68.1,30.10,East,88,1.0,8.0,68,0.00,,FEW021,0.00,186.00,VWS V14.01,2013-12-09 21:29:00,
2013-12-09 16:34:00,79.5,67.6,30.10,ENE,71,3.0,8.0,67,0.00,,FEW021,0.00,165.00,VWS V14.01,2013-12-09 21:34:00,
2013-12-09 16:39:00,79.3,67.8,30.10,SE,134,4.0,6.0,68,0.00,,FEW021,0.00,114.00,VWS V14.01,2013-12-09 21:39:00,
2013-12-09 16:44:00,79.0,68.0,30.10,SSE,153,5.0,7.0,69,0.00,,FEW021,0.00,123.00,VWS V14.01,2013-12-09 21:44:00,
2013-12-09 16:49:00,78.8,68.2,30.10,SSE,154,5.0,7.0,70,0.00,,FEW021,0.00,98.00,VWS V14.01,2013-12-09 21:49:00,
2013-12-09 16:54:00,78.6,68.4,30.10,SE,144,2.0,6.0,71,0.00,,FEW021,0.00,81.00,VWS V14.01,2013-12-09 21:54:00,
2013-12-09 16:59:00,78.5,68.3,30.10,North,360,2.0,4.0,71,0.00,,FEW021,0.00,33.00,VWS V14.01,2013-12-09 21:59:00,
2013-12-09 17:04:00,78.4,68.2,30.10,SE,141,3.0,7.0,71,0.00,,FEW021,0.00,28.00,VWS V14.01,2013-12-09 22:04:00,
2013-12-09 17:09:00,78.3,68.1,30.10,SE,133,1.0,7.0,71,0.00,,FEW021,0.00,21.00,VWS V14.01,2013-12-09 22:09:00,
2013-12-09 17:14:00,78.1,68.3,30.10,SSE,159,2.0,4.0,72,0.00,,FEW021,0.00,18.00,VWS V14.01,2013-12-09 22:14:00,
2013-12-09 17:19:00,77.9,68.2,30.10,SE,128,1.0,7.0,72,0.00,,FEW021,0.00,14.00,VWS V14.01,2013-12-09 22:19:00,
2013-12-09 17:24:00,77.7,68.4,30.10,ESE,121,1.0,5.0,73,0.00,,FEW021,0.00,9.00,VWS V14.01,2013-12-09 22:24:00,
2013-12-09 17:29:00,77.5,68.2,30.10,SE,140,0.0,6.0,73,0.00,,FEW021,0.00,5.00,VWS V14.01,2013-12-09 22:29:00,
2013-12-09 17:34:00,77.4,68.1,30.10,East,90,0.0,4.0,73,0.00,,FEW021,0.00,0.00,VWS V14.01,2013-12-09 22:34:00,
2013-12-09 17:39:00,77.2,68.3,30.11,SE,132,2.0,3.0,74,0.00,,FEW021,0.00,0.00,VWS V14.01,2013-12-09 22:39:00,
2013-12-09 17:44:00,77.0,68.1,30.10,East,92,1.0,3.0,74,0.00,,FEW021,0.00,0.00,VWS V14.01,2013-12-09 22:44:00,
2013-12-09 17:49:00,76.9,68.0,30.11,SE,141,0.0,3.0,74,0.00,,FEW021,0.00,0.00,VWS V14.01,2013-12-09 22:49:00,
2013-12-09 17:54:00,76.7,67.8,30.11,North,360,1.0,3.0,74,0.00,,FEW021,0.00,0.00,VWS V14.01,2013-12-09 22:54:00,
2013-12-09 17:59:00,76.6,67.7,30.11,SE,133,0.0,1.0,74,0.00,,FEW021,0.00,0.00,VWS V14.01,2013-12-09 22:59:00,
2013-12-09 18:04:00,76.4,67.9,30.11,SE,133,0.0,0.0,75,0.00,,FEW021,0.00,0.00,VWS V14.01,2013-12-09 23:04:00,
2013-12-09 18:09:00,76.2,67.7,30.11,SE,133,0.0,0.0,75,0.00,,FEW021,0.00,0.00,VWS V14.01,2013-12-09 23:09:00,
2013-12-09 18:14:00,75.9,67.8,30.12,SE,133,0.0,1.0,76,0.00,,FEW021,0.00,0.00,VWS V14.01,2013-12-09 23:14:00,
2013-12-09 18:19:00,75.7,67.6,30.12,SE,133,0.0,1.0,76,0.00,,FEW021,0.00,0.00,VWS V14.01,2013-12-09 23:19:00,
2013-12-09 18:24:00,75.6,67.5,30.12,SE,133,0.0,0.0,76,0.00,,FEW021,0.00,0.00,VWS V14.01,2013-12-09 23:24:00,
2013-12-09 18:29:00,75.5,67.8,30.12,SE,133,0.0,0.0,77,0.00,,FEW021,0.00,0.00,VWS V14.01,2013-12-09 23:29:00,
2013-12-09 18:34:00,75.4,67.7,30.12,SE,133,0.0,1.0,77,0.00,,FEW021,0.00,0.00,VWS V14.01,2013-12-09 23:34:00,
2013-12-09 18:39:00,75.4,67.3,30.12,SE,133,1.0,1.0,76,0.00,,FEW021,0.00,0.00,VWS V14.01,2013-12-09 23:39:00,
2013-12-09 18:44:00,75.3,67.2,30.12,SE,133,0.0,2.0,76,0.00,,FEW021,0.00,0.00,VWS V14.01,2013-12-09 23:44:00,
2013-12-09 18:49:00,75.2,67.5,30.12,SE,133,0.0,0.0,77,0.00,,FEW021,0.00,0.00,VWS V14.01,2013-12-09 23:49:00,
2013-12-09 18:54:00,75.3,67.6,30.12,SE,133,1.0,2.0,77,0.00,,FEW021,0.00,0.00,VWS V14.01,2013-12-09 23:54:00,
2013-12-09 18:59:00,75.4,67.7,30.12,SE,133,0.0,1.0,77,0.00,,FEW021,0.00,0.00,VWS V14.01,2013-12-09 23:59:00,
2013-12-09 19:04:00,75.4,67.7,30.12,SE,133,0.0,0.0,77,0.00,,FEW021,0.00,0.00,VWS V14.01,2013-12-10 00:04:00,
2013-12-09 19:09:00,75.4,67.7,30.13,SSE,161,1.0,3.0,77,0.00,,FEW021,0.00,0.00,VWS V14.01,2013-12-10 00:09:00,
2013-12-09 19:14:00,75.3,67.6,30.13,NE,44,0.0,2.0,77,0.00,,FEW021,0.00,0.00,VWS V14.01,2013-12-10 00:14:00,
2013-12-09 19:19:00,75.4,67.7,30.13,SE,131,0.0,3.0,77,0.00,,FEW021,0.00,0.00,VWS V14.01,2013-12-10 00:19:00,
2013-12-09 19:24:00,75.6,67.9,30.13,SE,140,0.0,3.0,77,0.00,,FEW021,0.00,0.00,VWS V14.01,2013-12-10 00:24:00,
2013-12-09 19:29:00,75.6,67.9,30.13,ESE,109,1.0,3.0,77,0.00,,FEW021,0.00,0.00,VWS V14.01,2013-12-10 00:29:00,
2013-12-09 19:34:00,75.7,68.0,30.13,SE,133,0.0,1.0,77,0.00,,FEW021,0.00,0.00,VWS V14.01,2013-12-10 00:34:00,
2013-12-09 19:39:00,75.7,68.0,30.13,East,93,0.0,5.0,77,0.00,,FEW021,0.00,0.00,VWS V14.01,2013-12-10 00:39:00,
2013-12-09 19:44:00,75.6,67.9,30.13,East,87,1.0,2.0,77,0.00,,FEW021,0.00,0.00,VWS V14.01,2013-12-10 00:44:00,
2013-12-09 19:49:00,75.5,68.2,30.13,ENE,66,0.0,2.0,78,0.00,,FEW021,0.00,0.00,VWS V14.01,2013-12-10 00:49:00,
2013-12-09 19:54:00,75.4,68.1,30.14,ESE,111,0.0,1.0,78,0.00,,FEW021,0.00,0.00,VWS V14.01,2013-12-10 00:54:00,
2013-12-09 19:59:00,75.2,67.9,30.14,ESE,111,0.0,0.0,78,0.00,,FEW021,0.00,0.00,VWS V14.01,2013-12-10 00:59:00,
2013-12-09 20:04:00,75.1,68.2,30.14,ESE,111,0.0,0.0,79,0.00,,FEW021,0.00,0.00,VWS V14.01,2013-12-10 01:04:00,
2013-12-09 20:09:00,74.8,67.9,30.14,ESE,111,0.0,0.0,79,0.00,,FEW021,0.00,0.00,VWS V14.01,2013-12-10 01:09:00,
2013-12-09 20:14:00,74.7,68.1,30.14,ESE,111,0.0,2.0,80,0.00,,FEW021,0.00,0.00,VWS V14.01,2013-12-10 01:14:00,
2013-12-09 20:19:00,74.7,68.1,30.14,ESE,111,0.0,1.0,80,0.00,,FEW021,0.00,0.00,VWS V14.01,2013-12-10 01:19:00,
2013-12-09 20:24:00,74.5,67.9,30.14,ESE,111,0.0,0.0,80,0.00,,FEW021,0.00,0.00,VWS V14.01,2013-12-10 01:24:00,
2013-12-09 20:29:00,74.5,68.3,30.14,ESE,111,0.0,0.0,81,0.00,,FEW021,0.00,0.00,VWS V14.01,2013-12-10 01:29:00,
2013-12-09 20:34:00,74.4,68.2,30.14,ESE,111,0.0,0.0,81,0.00,,FEW021,0.00,0.00,VWS V14.01,2013-12-10 01:34:00,
2013-12-09 20:38:00,74.4,68.2,30.14,ESE,111,0.0,0.0,81,0.00,,FEW021,0.00,0.00,VWS V14.01,2013-12-10 01:38:00,
2013-12-09 20:43:00,74.4,68.6,30.14,SE,130,0.0,4.0,82,0.00,,FEW021,0.00,0.00,VWS V14.01,2013-12-10 01:43:00,
2013-12-09 20:48:00,74.5,68.7,30.14,SE,130,0.0,1.0,82,0.00,,FEW021,0.00,0.00,VWS V14.01,2013-12-10 01:48:00,
2013-12-09 20:54:00,74.6,68.8,30.14,SE,130,0.0,0.0,82,0.00,,FEW021,0.00,0.00,VWS V14.01,2013-12-10 01:54:00,
2013-12-09 20:58:00,74.6,68.8,30.14,SE,130,1.0,1.0,82,0.00,,FEW021,0.00,0.00,VWS V14.01,2013-12-10 01:58:00,
2013-12-09 21:03:00,74.5,68.7,30.14,SE,130,0.0,1.0,82,0.00,,FEW021,0.00,0.00,VWS V14.01,2013-12-10 02:03:00,
2013-12-09 21:08:00,74.5,68.7,30.14,SE,130,0.0,1.0,82,0.00,,FEW021,0.00,0.00,VWS V14.01,2013-12-10 02:08:00,
2013-12-09 21:13:00,74.6,69.1,30.14,SE,130,0.0,1.0,83,0.00,,FEW021,0.00,0.00,VWS V14.01,2013-12-10 02:13:00,
2013-12-09 21:18:00,74.7,69.2,30.14,SE,130,0.0,0.0,83,0.00,,FEW021,0.00,0.00,VWS V14.01,2013-12-10 02:18:00,
2013-12-09 21:23:00,74.8,69.3,30.14,SE,129,0.0,2.0,83,0.00,,FEW021,0.00,0.00,VWS V14.01,2013-12-10 02:23:00,
2013-12-09 21:28:00,74.9,69.0,30.14,SE,129,0.0,1.0,82,0.00,,FEW021,0.00,0.00,VWS V14.01,2013-12-10 02:28:00,
2013-12-09 21:33:00,75.0,69.1,30.14,NE,51,0.0,3.0,82,0.00,,FEW021,0.00,0.00,VWS V14.01,2013-12-10 02:33:00,
2013-12-09 21:38:00,75.2,69.3,30.14,ESE,119,1.0,3.0,82,0.00,,FEW021,0.00,0.00,VWS V14.01,2013-12-10 02:38:00,
2013-12-09 21:43:00,75.3,69.4,30.14,SE,128,1.0,2.0,82,0.00,,FEW021,0.00,0.00,VWS V14.01,2013-12-10 02:43:00,
2013-12-09 21:48:00,75.5,69.6,30.14,SE,130,0.0,2.0,82,0.00,,FEW021,0.00,0.00,VWS V14.01,2013-12-10 02:48:00,
2013-12-09 21:53:00,75.6,69.7,30.14,ENE,70,2.0,2.0,82,0.00,,FEW021,0.00,0.00,VWS V14.01,2013-12-10 02:53:00,
2013-12-09 21:58:00,75.6,69.7,30.14,SE,135,0.0,3.0,82,0.00,,FEW021,0.00,0.00,VWS V14.01,2013-12-10 02:58:00,
2013-12-09 22:03:00,75.6,69.7,30.14,SE,135,0.0,2.0,82,0.00,,FEW021,0.00,0.00,VWS V14.01,2013-12-10 03:03:00,
2013-12-09 22:08:00,75.5,70.0,30.14,SE,133,1.0,2.0,83,0.00,,FEW021,0.00,0.00,VWS V14.01,2013-12-10 03:08:00,
2013-12-09 22:13:00,75.4,69.9,30.14,SE,133,0.0,1.0,83,0.00,,FEW021,0.00,0.00,VWS V14.01,2013-12-10 03:13:00,
2013-12-09 22:18:00,75.4,70.2,30.13,SE,132,1.0,2.0,84,0.00,,FEW021,0.00,0.00,VWS V14.01,2013-12-10 03:18:00,
2013-12-09 22:23:00,75.5,70.3,30.13,ESE,115,2.0,2.0,84,0.00,,FEW021,0.00,0.00,VWS V14.01,2013-12-10 03:23:00,
2013-12-09 22:28:00,75.7,70.5,30.13,NE,53,1.0,4.0,84,0.00,,FEW021,0.00,0.00,VWS V14.01,2013-12-10 03:28:00,
2013-12-09 22:33:00,75.9,70.7,30.13,NE,34,2.0,4.0,84,0.00,,FEW021,0.00,0.00,VWS V14.01,2013-12-10 03:33:00,
2013-12-09 22:38:00,76.0,70.5,30.13,East,90,2.0,4.0,83,0.00,,FEW021,0.00,0.00,VWS V14.01,2013-12-10 03:38:00,
2013-12-09 22:43:00,76.2,70.3,30.13,ESE,110,5.0,7.0,82,0.00,,FEW021,0.00,0.00,VWS V14.01,2013-12-10 03:43:00,
2013-12-09 22:48:00,76.2,70.3,30.13,SE,134,2.0,5.0,82,0.00,,FEW021,0.00,0.00,VWS V14.01,2013-12-10 03:48:00,
2013-12-09 22:53:00,76.3,70.4,30.13,ENE,70,3.0,5.0,82,0.00,,FEW021,0.00,0.00,VWS V14.01,2013-12-10 03:53:00,
2013-12-09 22:58:00,76.2,70.3,30.13,SSE,150,4.0,5.0,82,0.00,,FEW021,0.00,0.00,VWS V14.01,2013-12-10 03:58:00,
2013-12-09 23:03:00,76.1,70.2,30.13,ESE,117,0.0,6.0,82,0.00,,FEW021,0.00,0.00,VWS V14.01,2013-12-10 04:03:00,
2013-12-09 23:08:00,76.1,70.2,30.13,SE,140,3.0,7.0,82,0.00,,FEW021,0.00,0.00,VWS V14.01,2013-12-10 04:08:00,
2013-12-09 23:13:00,76.0,70.1,30.12,ESE,117,1.0,6.0,82,0.00,,FEW021,0.00,0.00,VWS V14.01,2013-12-10 04:13:00,
2013-12-09 23:18:00,76.0,70.1,30.12,SE,136,3.0,3.0,82,0.00,,FEW021,0.00,0.00,VWS V14.01,2013-12-10 04:18:00,
2013-12-09 23:23:00,76.0,70.1,30.12,East,84,2.0,5.0,82,0.00,,FEW021,0.00,0.00,VWS V14.01,2013-12-10 04:23:00,
2013-12-09 23:28:00,75.9,70.0,30.12,ENE,63,2.0,3.0,82,0.00,,FEW021,0.00,0.00,VWS V14.01,2013-12-10 04:28:00,
2013-12-09 23:33:00,76.0,70.1,30.12,SE,132,0.0,2.0,82,0.00,,FEW021,0.00,0.00,VWS V14.01,2013-12-10 04:33:00,
2013-12-09 23:38:00,76.0,70.1,30.12,SSE,150,1.0,3.0,82,0.00,,FEW021,0.00,0.00,VWS V14.01,2013-12-10 04:38:00,
2013-12-09 23:43:00,76.0,70.1,30.12,SE,133,1.0,4.0,82,0.00,,FEW021,0.00,0.00,VWS V14.01,2013-12-10 04:43:00,
2013-12-09 23:48:00,75.9,70.0,30.12,SE,146,3.0,6.0,82,0.00,,FEW021,0.00,0.00,VWS V14.01,2013-12-10 04:48:00,
2013-12-09 23:53:00,76.0,70.1,30.12,East,88,2.0,5.0,82,0.00,,FEW021,0.00,0.00,VWS V14.01,2013-12-10 04:53:00,
2013-12-09 23:58:00,76.0,70.1,30.12,SE,132,1.0,4.0,82,0.00,,FEW021,0.00,0.00,VWS V14.01,2013-12-10 04:58:00,